Regional Weather Roundup
Issued by NWS Little Rock, AR

Home | Current Version | Previous Version | Graphics & Text | Print | Product List | Glossary On
Versions: 1 2 3 4 5 6 7 8 9 10 11 12 13 14 15 16 17 18 19 20 21 22 23 24 25 26 27 28 29 30 31 32 33 34 35 36 37 38 39 40 41 42 43 44 45 46 47 48 49 50
069
ASUS44 KLZK 231215
RWRLZK

WEATHER ROUNDUP FOR ARKANSAS
NATIONAL WEATHER SERVICE LITTLE ROCK AR
700 AM CDT WED MAY 23 2018

NOTE: "FAIR" INDICATES FEW OR NO CLOUDS BELOW 12,000 FEET WITH NO
SIGNIFICANT WEATHER AND/OR OBSTRUCTIONS TO VISIBILITY.

ARZ001-003-010-029-231300-
NORTHWEST ARKANSAS

CITY           SKY/WX    TMP DP  RH WIND       PRES   REMARKS
FAYETTEVILLE   PTCLDY    62  62 100 CALM      30.10R
6HR MIN TEMP:  61; 6HR MAX TEMP:  64;

FORT SMITH     CLOUDY    70  69  97 NE5       30.06R
6HR MIN TEMP:  69; 6HR MAX TEMP:  72;

HARRISON       FOG       66  66 100 SE5       30.13R VSB 1/4
6HR MIN TEMP:  64; 6HR MAX TEMP:  68;

BENTONVILLE    CLEAR     68  66  93 E3        30.12R
6HR MIN TEMP:  67; 6HR MAX TEMP:  69;

ROGERS         PTCLDY    67  66  97 E3        30.11R
6HR MIN TEMP:  65; 6HR MAX TEMP:  68;

SILOAM SPGS    CLEAR     66  65  96 CALM      30.10R
6HR MIN TEMP:  64; 6HR MAX TEMP:  68;

HIGHFILL       CLEAR     67  64  90 CALM      30.10R
6HR MIN TEMP:  63; 6HR MAX TEMP:  69;

SPRINGDALE     CLEAR     66  66 100 E3        30.12R
$$

ARZ004-005-016-231300-
NORTH CENTRAL ARKANSAS

CITY           SKY/WX    TMP DP  RH WIND       PRES   REMARKS
BATESVILLE     CLOUDY    68  67  96 CALM      30.10R
6HR MIN TEMP:  66; 6HR MAX TEMP:  69;

FLIPPIN        FOG       66  66 100 CALM      30.12R VSB 1/2
6HR MIN TEMP:  65; 6HR MAX TEMP:  67;

MTN HOME       MOSUNNY   68  68 100 CALM      30.10R
6HR MIN TEMP:  66; 6HR MAX TEMP:  69;

$$

ARZ040-041-231300-
WEST CENTRAL ARKANSAS

CITY           SKY/WX    TMP DP  RH WIND       PRES   REMARKS
MENA           CLOUDY    68  66  94 CALM      30.09R
MOUNT IDA      FOG       68  68 100 CALM      30.07R VSB 1/4
6HR MIN TEMP:  67; 6HR MAX TEMP:  69;

$$

ARZ009-017-025-026-028-231300-
NORTHEAST ARKANSAS

CITY           SKY/WX    TMP DP  RH WIND       PRES   REMARKS
CORNING        FAIR      72  72 100 CALM      30.09R
JONESBORO      FAIR      71  71 100 CALM      30.08R
6HR MIN TEMP:  68; 6HR MAX TEMP:  72;

NEWPORT        FAIR      71  71 100 CALM      30.08R
6HR MIN TEMP:  70; 6HR MAX TEMP:  74;

WALNUT RIDGE     N/A     72  71  97 N5        30.09R FOG
6HR MIN TEMP:  71; 6HR MAX TEMP:  75;

BLYTHEVILLE    FAIR      73  70  90 CALM      30.09R
6HR MIN TEMP:  72; 6HR MAX TEMP:  75;

$$

ARZ022-023-033-042-044-231300-
CENTRAL ARKANSAS

CITY           SKY/WX    TMP DP  RH WIND       PRES   REMARKS
LITTLE ROCK    CLOUDY    71  71 100 CALM      30.07R
6HR MIN TEMP:  68; 6HR MAX TEMP:  73;

N LITTLE ROCK    N/A     71  70  96 S5        30.04R
6HR MIN TEMP:  68; 6HR MAX TEMP:  71;

JACKSONVILLE   MOSUNNY   69  69 100 CALM      30.07R
6HR MIN TEMP:  68; 6HR MAX TEMP:  72;

CONWAY         FOG       72  72 100 CALM      30.07R VSB 0
SEARCY         FAIR      70  70 100 N5        30.08R
6HR MIN TEMP:  68; 6HR MAX TEMP:  71;

HOT SPRINGS    PTCLDY    69  69 100 CALM      30.07R
6HR MIN TEMP:  69; 6HR MAX TEMP:  73;

RUSSELLVILLE   MOCLDY    69  69 100 CALM      30.07R
6HR MIN TEMP:  67; 6HR MAX TEMP:  70;

CLINTON        PTSUNNY   66  66 100 CALM      30.09R
$$

ARZ036-231300-
EAST ARKANSAS

CITY           SKY/WX    TMP DP  RH WIND       PRES   REMARKS
WEST MEMPHIS   FAIR      72  72 100 CALM      30.06R
6HR MIN TEMP:  70; 6HR MAX TEMP:  72;

$$

ARZ050-053-066-070-073-231300-
SOUTHWEST ARKANSAS

CITY           SKY/WX    TMP DP  RH WIND       PRES   REMARKS
ARKADELPHIA    PTSUNNY   69  69 100 CALM      30.07R FOG
6HR MIN TEMP:  66; 6HR MAX TEMP:  70;

CAMDEN         FAIR      68  66  94 CALM      30.06R FOG
TEXARKANA      CLOUDY    68  68 100 E3        30.06R FOG
6HR MIN TEMP:  67; 6HR MAX TEMP:  72;

EL DORADO      FAIR      69  69 100 CALM      30.06R
6HR MIN TEMP:  67; 6HR MAX TEMP:  71;

DE QUEEN       CLOUDY    69  69 100 E3        30.05R FOG
6HR MIN TEMP:  68; 6HR MAX TEMP:  71;

$$

ARZ056-057-069-231300-
SOUTHEAST ARKANSAS

CITY           SKY/WX    TMP DP  RH WIND       PRES   REMARKS
PINE BLUFF     FAIR      71  69  93 CALM      30.07R
6HR MIN TEMP:  69; 6HR MAX TEMP:  71;

STUTTGART      FAIR      74  72  93 N3        30.07R
6HR MIN TEMP:  72; 6HR MAX TEMP:  77;

MONTICELLO     FAIR      70  69  97 CALM      30.07R
6HR MIN TEMP:  69; 6HR MAX TEMP:  73;


$$






USA.gov is the U.S. government's official web portal to all federal, state and local government web resources and services.